Lexington Weather

Lexington, Massachusetts, USA

25°F
2/26/2021 7:33am 
  • Lexington Conditions: Clear
  • Temperature: 24.8°F / -4.0°CColder 0.4°F than last hour.
  • Dew Point: 15.4°F 
  • Relative Humidity: 67%Increased 1.0% since last hour.
  • Wind: Calm, 10-min avg: Calm, gust: None
  • Barometer: 30.35 inRising 0.04  inHg/hr Rising Slowly
  • Visibility: 10 miles
  • Snow Today: 0.0 in
  •   

Regional Weather Roundup
for Boston / Norton, MA

        
000
ASUS41 KBOX 220305
RWRBOX

REGIONAL WEATHER ROUNDUP
NATIONAL WEATHER SERVICE BOSTON/NORTON MA
1000 PM EST SUN FEB 21 2021

NOTE:  "FAIR" INDICATES FEW OR NO CLOUDS BELOW 12,000 FEET WITH NO 
SIGNIFICANT WEATHER AND/OR OBSTRUCTIONS TO VISIBILITY.

MAZALL-220400-
EASTERN MASSACHUSETTS
  
CITY           SKY/WX    TMP DP  RH WIND       PRES   REMARKS
BOSTON         CLEAR     28   8  43 NW6       30.45F WCI  22          
BEVERLY        CLEAR     20  10  65 CALM      30.44S                  
LAWRENCE       CLEAR     18  10  71 CALM      30.45F                  
BEDFORD        CLEAR     15   8  73 CALM      30.44S                  
BLUE HILL        N/A     23   6  48 W6        30.40F WCI  16          
NORWOOD        CLEAR     14   9  80 CALM      30.46S                  
MARSHFIELD     CLEAR     21  18  86 W3        30.45F                  
PLYMOUTH       CLEAR     16  13  88 CALM      30.45S                  
TAUNTON        CLEAR     15  10  80 CALM      30.45F                  
NEW BEDFORD    CLEAR     19  13  77 CALM      30.45F                  
$$

MAZALL-220400-
CAPE COD AND THE ISLANDS
  
CITY           SKY/WX    TMP DP  RH WIND       PRES   REMARKS
FALMOUTH       CLEAR     14  12  92 CALM      30.45R                  
HYANNIS        CLEAR     16  12  84 CALM      30.45F                  
CHATHAM        CLEAR     23  15  71 SW5       30.47F WCI  17          
PROVINCETOWN   CLEAR     28  20  71 SW9       30.46F WCI  19          
NANTUCKET      CLEAR     23  15  71 W3        30.47F                  
MARTHAS VNYRD  CLEAR     15  11  83 CALM      30.46F                  
$$
 
MAZALL-220400-
CENTRAL AND WESTERN MASSACHUSETTS
  
CITY           SKY/WX    TMP DP  RH WIND       PRES   REMARKS
WORCESTER      CLEAR     21   5  50 W5        30.39S WCI  15          
FITCHBURG      CLEAR      9   5  84 CALM      30.44S                  
ORANGE         CLEAR     11   7  84 CALM      30.43F                  
SPRINGFIELD    PTCLDY    11   5  78 CALM      30.43R                  
WESTFIELD      CLEAR     14  12  92 W3        30.44F                  
NORTH ADAMS    CLEAR     11   5  77 E3        30.42F                  
PITTSFIELD     CLEAR     13   5  70 CALM      30.36F                  
$$
 
RIZALL-220400-
RHODE ISLAND
  
CITY           SKY/WX    TMP DP  RH WIND       PRES   REMARKS
PROVIDENCE     CLEAR     24  11  57 W6        30.47S WCI  17          
NEWPORT        CLEAR     21  13  71 CALM      30.45F                  
BLOCK ISLAND   CLEAR     24  14  65 SW3       30.47F                  
SMITHFIELD     CLEAR     19   9  65 CALM      30.45R                  
WESTERLY       CLEAR     17  10  74 CALM      30.47F                  
$$
 
CTZALL-220400-
CONNECTICUT
  
CITY           SKY/WX    TMP DP  RH WIND       PRES   REMARKS
BRADLEY INTL   CLEAR     21   9  59 CALM      30.45F                  
HARTFORD       CLEAR     22  13  68 CALM      30.46F                  
BRIDGEPORT     CLEAR     24  14  65 CALM      30.47F                  
DANBURY        CLEAR     17   9  70 CALM      30.45F                  
GROTON         CLEAR     21  13  71 N8        30.46F WCI  11          
NEW HAVEN      CLEAR     19  10  68 CALM      30.46F                  
CHESTER        FAIR      23   5  46 CALM      30.44F                  
MERIDEN        CLEAR     18   8  65 CALM      30.47F                  
WILLIMANTIC    CLEAR     15   9  76 NE3       30.46F                  
OXFORD         CLEAR     16   6  65 CALM      30.43F                  
$$

MEZ002-015-021-024-NHZ003-005-008-011-012-014-VTZ005-008-220400-
NORTHERN NEW ENGLAND
  
CITY           SKY/WX    TMP DP  RH WIND       PRES   REMARKS
PORTLAND ME    CLEAR     23  10  57 W3        30.41F                  
BANGOR ME      CLEAR     23   8  52 W3        30.37F                  
CONCORD NH     CLEAR     13   6  74 CALM      30.42S                  
MANCHESTER NH  CLEAR     20   9  62 S3        30.42S                  
NASHUA NH      CLEAR     15  11  83 CALM      30.44F                  
PORTSMOUTH NH  CLEAR     22   8  53 SW5       30.41R WCI  16          
JAFFREY NH     CLEAR      7   1  76 S5        30.39R WCI  -2          
KEENE NH       CLEAR     10   5  80 CALM      30.43F                  
BURLINGTON VT  CLEAR     15   6  67 CALM      30.37F                  
MT. WASHINGTON PTCLDY     1  -6  71 W29         N/A  WCI -24          
$$

NYZ052-076-220400-
EASTERN NEW YORK
  
CITY           SKY/WX    TMP DP  RH WIND       PRES   REMARKS
ALBANY         CLEAR     18   9  68 S3        30.43F                  
NEW YORK CITY  PTCLDY    34  15  46 SW8       30.47F WCI  27          
$$
 
ANZALL-220400-
MARINE OBSERVATIONS
  
STATION/POSITION TIME  TEMP    WIND        PRES    VSBY  WAVE
                       AIR SEA DIR/SP/G                  HT/PER
                 (UTC) (F)     (DEG/KT/KT) (MB)    (MI)  (FT/S)
BOSTON BUOY      0240   33 39  310/  4/  6 1031.6F
BUZZARDS BAY     0200          260/  8/  9 1032.8S
NANTUCKET SOUND  0240      36  230/ 10/ 12   N/A
MASS BAY-STELLWA 0204   33     300/  6/  8 1030.4S  1 7/8  3/11
ISLE OF SHOALS   0200   30     300/ 12/ 14 1030.3F
S OF BLOCK IS    0226      38                N/A           3/10
$$

......................KEY.........................
  SKY/WX - SKY CONDITION/PRESENT WEATHER
  TMP    - TEMPERATURE IN FAHRENHEIT
  DWPT   - DEWPOINT IN FAHRENHEIT
  RH     - RELATIVE HUMIDITY IN PERCENT
  WIND   - DIRECTION AND SPEED IN MPH
  PRES   - MEAN SEA LEVEL PRESSURE IN INCHES OF HG
  WCI    - WIND CHILL INDEX
  VSB    - VISIBILITY IN MILES
  HX     - HEAT INDEX
  TC     - TEMPERATURE IN CELSIUS
  VRB    - VARIABLE WIND DIRECTION
  N/A    - NOT AVAILABLE
  
      

Other recent Regional Weather Roundups

Fri Feb 26, 7:04am

Fri Feb 26, 6:04am

Fri Feb 26, 5:04am

Fri Feb 26, 4:04am

Fri Feb 26, 3:04am

Fri Feb 26, 2:04am

Fri Feb 26, 1:04am

Fri Feb 26, 12:04am

Thu Feb 25, 11:04pm

Thu Feb 25, 10:04pm

Thu Feb 25, 9:04pm

Thu Feb 25, 8:05pm

Thu Feb 25, 7:05pm

Thu Feb 25, 6:04pm

Thu Feb 25, 5:04pm

Thu Feb 25, 4:05pm

Thu Feb 25, 3:05pm

Thu Feb 25, 2:04pm

Thu Feb 25, 1:04pm

Thu Feb 25, 12:05pm

Thu Feb 25, 11:04am

Thu Feb 25, 10:04am

Thu Feb 25, 9:04am

Thu Feb 25, 8:04am

Thu Feb 25, 7:04am

Thu Feb 25, 6:04am

Thu Feb 25, 5:04am

Thu Feb 25, 4:04am

Thu Feb 25, 3:04am

Thu Feb 25, 2:04am

Thu Feb 25, 1:04am

Thu Feb 25, 12:04am

Wed Feb 24, 11:04pm

Wed Feb 24, 10:05pm

Wed Feb 24, 9:04pm

Wed Feb 24, 8:04pm

Wed Feb 24, 7:04pm

Wed Feb 24, 6:04pm

Wed Feb 24, 5:04pm

Wed Feb 24, 4:04pm

Wed Feb 24, 3:04pm

Wed Feb 24, 2:05pm

Wed Feb 24, 1:05pm

Wed Feb 24, 12:05pm

Wed Feb 24, 11:04am

Wed Feb 24, 10:04am

Wed Feb 24, 9:04am

Wed Feb 24, 8:04am

Wed Feb 24, 7:04am

Wed Feb 24, 6:04am

Wed Feb 24, 5:04am

Wed Feb 24, 4:04am

Wed Feb 24, 3:04am

Wed Feb 24, 2:04am

Wed Feb 24, 1:04am

Wed Feb 24, 12:04am

Tue Feb 23, 11:04pm

Tue Feb 23, 10:04pm

Tue Feb 23, 9:04pm

Tue Feb 23, 8:05pm

Tue Feb 23, 7:04pm

Tue Feb 23, 6:04pm

Tue Feb 23, 5:04pm

Tue Feb 23, 4:05pm

Tue Feb 23, 3:04pm

Tue Feb 23, 2:04pm

Tue Feb 23, 1:04pm

Tue Feb 23, 12:04pm

Tue Feb 23, 11:04am

Tue Feb 23, 10:04am

Tue Feb 23, 9:04am

Tue Feb 23, 7:04am

Tue Feb 23, 6:04am

Tue Feb 23, 5:04am

Tue Feb 23, 4:04am

Tue Feb 23, 3:04am

Tue Feb 23, 2:04am

Tue Feb 23, 1:04am

Tue Feb 23, 12:04am

Mon Feb 22, 11:04pm

Mon Feb 22, 10:04pm

Mon Feb 22, 9:04pm

Mon Feb 22, 8:04pm

Mon Feb 22, 7:04pm

Mon Feb 22, 6:04pm

Mon Feb 22, 5:04pm

Mon Feb 22, 4:05pm

Mon Feb 22, 3:04pm

Mon Feb 22, 2:05pm

Mon Feb 22, 1:04pm

Mon Feb 22, 12:05pm

Mon Feb 22, 11:04am

Mon Feb 22, 10:04am

Mon Feb 22, 9:05am

Mon Feb 22, 8:04am

Mon Feb 22, 7:04am

Mon Feb 22, 6:04am

Mon Feb 22, 5:04am

Mon Feb 22, 4:04am

Mon Feb 22, 3:04am

Mon Feb 22, 2:04am

Mon Feb 22, 1:04am

Mon Feb 22, 12:04am

Sun Feb 21, 11:04pm

Sun Feb 21, 9:04pm

Sun Feb 21, 8:04pm

Sun Feb 21, 7:04pm

Sun Feb 21, 6:04pm

Sun Feb 21, 5:04pm

Sun Feb 21, 4:05pm

Sun Feb 21, 3:04pm

Sun Feb 21, 2:04pm

Sun Feb 21, 1:05pm

Sun Feb 21, 12:05pm

Sun Feb 21, 11:04am

Sun Feb 21, 10:05am

Sun Feb 21, 9:04am

Sun Feb 21, 8:04am

Sun Feb 21, 7:04am

Sun Feb 21, 6:04am

Sun Feb 21, 5:04am

Sun Feb 21, 4:04am

Sun Feb 21, 3:04am

Sun Feb 21, 2:04am

Sun Feb 21, 1:04am

Sun Feb 21, 12:04am

Sat Feb 20, 11:04pm

Sat Feb 20, 10:04pm

Sat Feb 20, 9:04pm

Sat Feb 20, 8:04pm

Sat Feb 20, 7:04pm

Sat Feb 20, 6:04pm

Sat Feb 20, 5:04pm

Sat Feb 20, 4:05pm

Sat Feb 20, 3:04pm

Sat Feb 20, 2:04pm

Sat Feb 20, 1:05pm

Sat Feb 20, 12:05pm

Sat Feb 20, 11:04am

Sat Feb 20, 10:05am

Sat Feb 20, 9:04am

Sat Feb 20, 8:04am

Sat Feb 20, 7:04am

Sat Feb 20, 6:04am

Sat Feb 20, 5:04am

Sat Feb 20, 4:04am

Sat Feb 20, 3:04am

Sat Feb 20, 2:04am

Sat Feb 20, 1:04am

Sat Feb 20, 12:04am

Fri Feb 19, 11:04pm

Fri Feb 19, 10:05pm

Fri Feb 19, 9:04pm

Fri Feb 19, 8:04pm

Fri Feb 19, 7:04pm

Fri Feb 19, 6:04pm

Fri Feb 19, 5:04pm

Fri Feb 19, 4:05pm

Fri Feb 19, 3:04pm

Fri Feb 19, 2:04pm

Fri Feb 19, 1:05pm

Fri Feb 19, 12:05pm

Fri Feb 19, 11:04am

Fri Feb 19, 10:04am

Fri Feb 19, 9:04am

Fri Feb 19, 8:04am

Meta data:

ID: 818642a0-8c6a-4cee-9f57-1692c47ef2b7
Link: https://api.weather.gov/products/818642a0-8c6a-4cee-9f57-1692c47ef2b7